# Tabular Observed and Forecast Hydrograph Information
#
# Location: Smith River - Jedediah Smith SP (CREC1)
#
# File Generation Time: 05/03/2026 at 08:48 AM PDT
# Data Interval: 1 Hour
#
# Most Recent Date & Time of Maximum Observed: 04/28/2026 at 08:00 AM PDT
# Maximum Observed Stage: 6.34 Feet
# Maximum Observed Flow: 1256 cfs
#
# Earliest Date & Time of Maximum Forecast: 05/04/2026 at 10:00 AM PDT
# Maximum Forecast Stage: 6.13 Feet
# Maximum Forecast Flow: 1096 cfs
#
# OBSERVED
#
# Date & Time (Local) Stage (Feet) Flow (cfs) Trend Observed Status
# ---------------------------------------------------------------------------------
04/28/2026 08 AM PDT 6.34 1256 Normal
04/28/2026 09 AM PDT 6.33 1248 - Normal
04/28/2026 10 AM PDT 6.33 1248 0 Normal
04/28/2026 11 AM PDT 6.33 1248 0 Normal
04/28/2026 12 PM PDT 6.33 1248 0 Normal
04/28/2026 01 PM PDT 6.33 1248 0 Normal
04/28/2026 02 PM PDT 6.33 1248 0 Normal
04/28/2026 03 PM PDT 6.32 1240 - Normal
04/28/2026 04 PM PDT 6.32 1240 0 Normal
04/28/2026 05 PM PDT 6.31 1233 - Normal
04/28/2026 06 PM PDT 6.31 1233 0 Normal
04/28/2026 07 PM PDT 6.30 1225 - Normal
04/28/2026 08 PM PDT 6.30 1225 0 Normal
04/28/2026 09 PM PDT 6.30 1225 0 Normal
04/28/2026 10 PM PDT 6.29 1217 - Normal
04/28/2026 11 PM PDT 6.28 1209 - Normal
04/29/2026 12 AM PDT 6.28 1209 0 Normal
04/29/2026 01 AM PDT 6.27 1202 - Normal
04/29/2026 02 AM PDT 6.27 1202 0 Normal
04/29/2026 03 AM PDT 6.27 1202 0 Normal
04/29/2026 04 AM PDT 6.26 1194 - Normal
04/29/2026 05 AM PDT 6.26 1194 0 Normal
04/29/2026 06 AM PDT 6.26 1194 0 Normal
04/29/2026 07 AM PDT 6.25 1186 - Normal
04/29/2026 08 AM PDT 6.25 1186 0 Normal
04/29/2026 09 AM PDT 6.25 1186 0 Normal
04/29/2026 10 AM PDT 6.24 1178 - Normal
04/29/2026 11 AM PDT 6.24 1178 0 Normal
04/29/2026 12 PM PDT 6.24 1178 0 Normal
04/29/2026 01 PM PDT 6.24 1178 0 Normal
04/29/2026 02 PM PDT 6.24 1178 0 Normal
04/29/2026 03 PM PDT 6.24 1178 0 Normal
04/29/2026 04 PM PDT 6.24 1178 0 Normal
04/29/2026 05 PM PDT 6.24 1178 0 Normal
04/29/2026 06 PM PDT 6.23 1171 - Normal
04/29/2026 07 PM PDT 6.23 1171 0 Normal
04/29/2026 08 PM PDT 6.22 1163 - Normal
04/29/2026 09 PM PDT 6.22 1163 0 Normal
04/29/2026 10 PM PDT 6.22 1163 0 Normal
04/29/2026 11 PM PDT 6.21 1156 - Normal
04/30/2026 12 AM PDT 6.20 1148 - Normal
04/30/2026 01 AM PDT 6.20 1148 0 Normal
04/30/2026 02 AM PDT 6.19 1140 - Normal
04/30/2026 03 AM PDT 6.19 1140 0 Normal
04/30/2026 04 AM PDT 6.18 1133 - Normal
04/30/2026 05 AM PDT 6.18 1133 0 Normal
04/30/2026 06 AM PDT 6.18 1133 0 Normal
04/30/2026 07 AM PDT 6.18 1133 0 Normal
04/30/2026 08 AM PDT 6.18 1133 0 Normal
04/30/2026 09 AM PDT 6.17 1125 - Normal
04/30/2026 10 AM PDT 6.17 1125 0 Normal
04/30/2026 11 AM PDT 6.17 1125 0 Normal
04/30/2026 12 PM PDT 6.17 1125 0 Normal
04/30/2026 01 PM PDT 6.17 1125 0 Normal
04/30/2026 02 PM PDT 6.17 1125 0 Normal
04/30/2026 03 PM PDT 6.18 1133 + Normal
04/30/2026 04 PM PDT 6.17 1125 - Normal
04/30/2026 05 PM PDT 6.16 1118 - Normal
04/30/2026 06 PM PDT 6.16 1118 0 Normal
04/30/2026 07 PM PDT 6.16 1118 0 Normal
04/30/2026 08 PM PDT 6.15 1111 - Normal
04/30/2026 09 PM PDT 6.14 1103 - Normal
04/30/2026 10 PM PDT 6.15 1111 + Normal
04/30/2026 11 PM PDT 6.14 1103 - Normal
05/01/2026 12 AM PDT 6.13 1096 - Normal
05/01/2026 01 AM PDT 6.13 1096 0 Normal
05/01/2026 02 AM PDT 6.12 1088 - Normal
05/01/2026 03 AM PDT 6.12 1088 0 Normal
05/01/2026 04 AM PDT 6.11 1081 - Normal
05/01/2026 05 AM PDT 6.12 1088 + Normal
05/01/2026 06 AM PDT 6.11 1081 - Normal
05/01/2026 07 AM PDT 6.11 1081 0 Normal
05/01/2026 08 AM PDT 6.11 1081 0 Normal
05/01/2026 09 AM PDT 6.11 1081 0 Normal
05/01/2026 10 AM PDT 6.10 1074 - Normal
05/01/2026 11 AM PDT 6.10 1074 0 Normal
05/01/2026 12 PM PDT 6.10 1074 0 Normal
05/01/2026 01 PM PDT 6.10 1074 0 Normal
05/01/2026 02 PM PDT 6.11 1081 + Normal
05/01/2026 03 PM PDT 6.10 1074 - Normal
05/01/2026 04 PM PDT 6.10 1074 0 Normal
05/01/2026 05 PM PDT 6.10 1074 0 Normal
05/01/2026 06 PM PDT 6.10 1074 0 Normal
05/01/2026 07 PM PDT 6.10 1074 0 Normal
05/01/2026 08 PM PDT 6.10 1074 0 Normal
05/01/2026 09 PM PDT 6.09 1066 - Normal
05/01/2026 10 PM PDT 6.09 1066 0 Normal
05/01/2026 11 PM PDT 6.08 1059 - Normal
05/02/2026 12 AM PDT 6.08 1059 0 Normal
05/02/2026 01 AM PDT 6.07 1052 - Normal
05/02/2026 02 AM PDT 6.07 1052 0 Normal
05/02/2026 03 AM PDT 6.07 1052 0 Normal
05/02/2026 04 AM PDT 6.06 1044 - Normal
05/02/2026 05 AM PDT 6.06 1044 0 Normal
05/02/2026 06 AM PDT 6.06 1044 0 Normal
05/02/2026 07 AM PDT 6.06 1044 0 Normal
05/02/2026 08 AM PDT 6.06 1044 0 Normal
05/02/2026 09 AM PDT 6.05 1037 - Normal
05/02/2026 10 AM PDT 6.06 1044 + Normal
05/02/2026 11 AM PDT 6.06 1044 0 Normal
05/02/2026 12 PM PDT 6.06 1044 0 Normal
05/02/2026 01 PM PDT 6.06 1044 0 Normal
05/02/2026 02 PM PDT 6.06 1044 0 Normal
05/02/2026 03 PM PDT 6.06 1044 0 Normal
05/02/2026 04 PM PDT 6.06 1044 0 Normal
05/02/2026 05 PM PDT 6.05 1037 - Normal
05/02/2026 06 PM PDT 6.05 1037 0 Normal
05/02/2026 07 PM PDT 6.05 1037 0 Normal
05/02/2026 08 PM PDT 6.05 1037 0 Normal
05/02/2026 09 PM PDT 6.04 1030 - Normal
05/02/2026 10 PM PDT 6.04 1030 0 Normal
05/02/2026 11 PM PDT 6.03 1023 - Normal
05/03/2026 12 AM PDT 6.03 1023 0 Normal
05/03/2026 01 AM PDT 6.02 1016 - Normal
05/03/2026 02 AM PDT 6.02 1016 0 Normal
05/03/2026 03 AM PDT 6.02 1016 0 Normal
05/03/2026 04 AM PDT 6.01 1009 - Normal
05/03/2026 05 AM PDT 6.01 1009 0 Normal
05/03/2026 06 AM PDT 6.01 1009 0 Normal
05/03/2026 07 AM PDT 6.01 1009 0 Normal
05/03/2026 08 AM PDT 6.01 1009 0 Normal
#
# FORECAST
#
# Date & Time (Local) Stage (Feet) Flow (cfs) Trend Forecast Status
# ---------------------------------------------------------------------------------
05/03/2026 09 AM PDT 6.00 1001 Normal
05/03/2026 10 AM PDT 6.00 1001 0 Normal
05/03/2026 11 AM PDT 6.00 1001 0 Normal
05/03/2026 12 PM PDT 6.00 1001 0 Normal
05/03/2026 01 PM PDT 5.99 994 - Normal
05/03/2026 02 PM PDT 5.99 994 0 Normal
05/03/2026 03 PM PDT 5.99 994 0 Normal
05/03/2026 04 PM PDT 5.98 987 - Normal
05/03/2026 05 PM PDT 5.98 987 0 Normal
05/03/2026 06 PM PDT 5.97 980 - Normal
05/03/2026 07 PM PDT 5.97 980 0 Normal
05/03/2026 08 PM PDT 5.97 980 0 Normal
05/03/2026 09 PM PDT 5.97 980 0 Normal
05/03/2026 10 PM PDT 5.97 980 0 Normal
05/03/2026 11 PM PDT 5.98 987 + Normal
05/04/2026 12 AM PDT 5.98 987 0 Normal
05/04/2026 01 AM PDT 5.99 994 + Normal
05/04/2026 02 AM PDT 6.00 1001 + Normal
05/04/2026 03 AM PDT 6.01 1009 + Normal
05/04/2026 04 AM PDT 6.03 1023 + Normal
05/04/2026 05 AM PDT 6.05 1037 + Normal
05/04/2026 06 AM PDT 6.07 1052 + Normal
05/04/2026 07 AM PDT 6.09 1066 + Normal
05/04/2026 08 AM PDT 6.11 1081 + Normal
05/04/2026 09 AM PDT 6.12 1088 + Normal
05/04/2026 10 AM PDT 6.13 1096 + Normal
05/04/2026 11 AM PDT 6.13 1096 0 Normal
05/04/2026 12 PM PDT 6.12 1088 - Normal
05/04/2026 01 PM PDT 6.11 1081 - Normal
05/04/2026 02 PM PDT 6.09 1066 - Normal
05/04/2026 03 PM PDT 6.08 1059 - Normal
05/04/2026 04 PM PDT 6.06 1044 - Normal
05/04/2026 05 PM PDT 6.04 1030 - Normal
05/04/2026 06 PM PDT 6.03 1023 - Normal
05/04/2026 07 PM PDT 6.01 1009 - Normal
05/04/2026 08 PM PDT 6.00 1001 - Normal
05/04/2026 09 PM PDT 5.99 994 - Normal
05/04/2026 10 PM PDT 5.97 980 - Normal
05/04/2026 11 PM PDT 5.96 973 - Normal
05/05/2026 12 AM PDT 5.96 973 0 Normal
05/05/2026 01 AM PDT 5.95 966 - Normal
05/05/2026 02 AM PDT 5.94 959 - Normal
05/05/2026 03 AM PDT 5.93 952 - Normal
05/05/2026 04 AM PDT 5.93 952 0 Normal
05/05/2026 05 AM PDT 5.92 945 - Normal
05/05/2026 06 AM PDT 5.92 945 0 Normal
05/05/2026 07 AM PDT 5.91 938 - Normal
05/05/2026 08 AM PDT 5.91 938 0 Normal
05/05/2026 09 AM PDT 5.90 932 - Normal
05/05/2026 10 AM PDT 5.90 932 0 Normal
05/05/2026 11 AM PDT 5.89 925 - Normal
05/05/2026 12 PM PDT 5.89 925 0 Normal
05/05/2026 01 PM PDT 5.88 918 - Normal
05/05/2026 02 PM PDT 5.88 918 0 Normal
05/05/2026 03 PM PDT 5.88 918 0 Normal
05/05/2026 04 PM PDT 5.87 911 - Normal
05/05/2026 05 PM PDT 5.87 911 0 Normal
05/05/2026 06 PM PDT 5.86 904 - Normal
05/05/2026 07 PM PDT 5.86 904 0 Normal
05/05/2026 08 PM PDT 5.86 904 0 Normal
05/05/2026 09 PM PDT 5.86 904 0 Normal
05/05/2026 10 PM PDT 5.85 898 - Normal
05/05/2026 11 PM PDT 5.85 898 0 Normal
05/06/2026 12 AM PDT 5.85 898 0 Normal
05/06/2026 01 AM PDT 5.85 898 0 Normal
05/06/2026 02 AM PDT 5.84 891 - Normal
05/06/2026 03 AM PDT 5.84 891 0 Normal
05/06/2026 04 AM PDT 5.84 891 0 Normal
05/06/2026 05 AM PDT 5.84 891 0 Normal
05/06/2026 06 AM PDT 5.84 891 0 Normal
05/06/2026 07 AM PDT 5.83 884 - Normal
05/06/2026 08 AM PDT 5.83 884 0 Normal
05/06/2026 09 AM PDT 5.83 884 0 Normal
05/06/2026 10 AM PDT 5.83 884 0 Normal
05/06/2026 11 AM PDT 5.83 884 0 Normal
05/06/2026 12 PM PDT 5.83 884 0 Normal
05/06/2026 01 PM PDT 5.82 877 - Normal
05/06/2026 02 PM PDT 5.82 877 0 Normal
05/06/2026 03 PM PDT 5.82 877 0 Normal
05/06/2026 04 PM PDT 5.82 877 0 Normal
05/06/2026 05 PM PDT 5.82 877 0 Normal
05/06/2026 06 PM PDT 5.81 871 - Normal
05/06/2026 07 PM PDT 5.81 871 0 Normal
05/06/2026 08 PM PDT 5.81 871 0 Normal
05/06/2026 09 PM PDT 5.81 871 0 Normal
05/06/2026 10 PM PDT 5.80 864 - Normal
05/06/2026 11 PM PDT 5.80 864 0 Normal
05/07/2026 12 AM PDT 5.80 864 0 Normal
05/07/2026 01 AM PDT 5.80 864 0 Normal
05/07/2026 02 AM PDT 5.80 864 0 Normal
05/07/2026 03 AM PDT 5.79 857 - Normal
05/07/2026 04 AM PDT 5.79 857 0 Normal
05/07/2026 05 AM PDT 5.79 857 0 Normal
05/07/2026 06 AM PDT 5.79 857 0 Normal
05/07/2026 07 AM PDT 5.79 857 0 Normal
05/07/2026 08 AM PDT 5.79 857 0 Normal
05/07/2026 09 AM PDT 5.78 851 - Normal
05/07/2026 10 AM PDT 5.78 851 0 Normal
05/07/2026 11 AM PDT 5.78 851 0 Normal
05/07/2026 12 PM PDT 5.78 851 0 Normal
05/07/2026 01 PM PDT 5.78 851 0 Normal
05/07/2026 02 PM PDT 5.77 844 - Normal
05/07/2026 03 PM PDT 5.77 844 0 Normal
05/07/2026 04 PM PDT 5.77 844 0 Normal
05/07/2026 05 PM PDT 5.77 844 0 Normal
05/07/2026 06 PM PDT 5.76 838 - Normal
05/07/2026 07 PM PDT 5.76 838 0 Normal
05/07/2026 08 PM PDT 5.76 838 0 Normal
05/07/2026 09 PM PDT 5.76 838 0 Normal
05/07/2026 10 PM PDT 5.76 838 0 Normal
05/07/2026 11 PM PDT 5.75 831 - Normal
05/08/2026 12 AM PDT 5.75 831 0 Normal
05/08/2026 01 AM PDT 5.75 831 0 Normal
05/08/2026 02 AM PDT 5.75 831 0 Normal
05/08/2026 03 AM PDT 5.75 831 0 Normal
05/08/2026 04 AM PDT 5.75 831 0 Normal
05/08/2026 05 AM PDT 5.74 825 - Normal
#
# NOTE 1: Stages are rounded to the nearest hundredth (.01) of a foot.
# NOTE 2: Flows are rounded to the nearest (1) cfs.
# NOTE 3: Trends are determined using hourly change in unrounded stage and flow.
# NOTE 4: Maximum Values are determined using unrounded stage and flow.
|